Location: Bazugues
(43.4465°N, 0.3432°E)
Time: 05:45:02
(UTC+00:00)

Cosmos 1500 Rocket - Pass Details

Date: 12 January 2026
Orbit: 597 x 623 km, 82.5° (Epoch: 10 February)

Event Time Altitude Azimuth Distance (km) Brightness Sun altitude
Rises 17:10:43 0° 348° (NNW) 2,910 6.9 -5.1°
Reaches altitude 10° 17:12:59 10° 345° (NNW) 2,001 6.1 -5.4°
Maximum altitude 17:17:21 61° 265° (W) 710 4.2 -6.2°
Drops below altitude 10° 17:21:41 10° 186° (S) 1,986 6.6 -6.9°
Sets 17:23:55 0° 182° (S) 2,886 7.4 -7.3°
